When you browse on this site, cookies collect data to enhance your experience and personalize the content and advertising you see.
Visit our Privacy Policy to learn more. By continuing to use the site, you agree to this use of cookies and data.
  • In Latvia
  • List of Countries
  • For 7 days
  • Water Temperature
  • Satellite Maps
  • Weather Map
  • Weather Widgets
  • user-avatar
    Login

    Hourly Weather Korçe

    Today, 26 March, Tuesday

    Time Temperature Precipitation Wind Pressure Humidity
    00:00 +6°C° 0 mm 1 mps 661 mmHg 83%
    01:00 +6°C° 0 mm 1 mps 661 mmHg 83%
    02:00 +6°C° 0 mm 1 mps 661 mmHg 82%
    03:00 +6°C° 0 mm 1 mps 661 mmHg 81%
    04:00 +6°C° 0 mm 1 mps 661 mmHg 81%
    05:00 +6°C° 0 mm 1 mps 661 mmHg 77%
    06:00 +7°C° 0 mm 1 mps 661 mmHg 74%
    07:00 +8°C° 0 mm 1 mps 661 mmHg 70%
    08:00 +10°C° 0 mm 1 mps 662 mmHg 63%
    09:00 +12°C° 0 mm 1 mps 663 mmHg 55%
    10:00 +13°C° 0 mm 1 mps 663 mmHg 48%
    11:00 +14°C° 0.7 mm 1 mps 663 mmHg 49%
    12:00 +14°C° 0.7 mm 1 mps 663 mmHg 50%
    13:00 +14°C° 0.7 mm 1 mps 663 mmHg 51%
    14:00 +13°C° 1.4 mm 1 mps 663 mmHg 56%
    15:00 +12°C° 1.4 mm 1 mps 663 mmHg 61%
    16:00 +11°C° 1.4 mm 1 mps 663 mmHg 66%
    17:00 +10°C° 0.6 mm 1 mps 663 mmHg 70%
    18:00 +9°C° 0.6 mm 1 mps 663 mmHg 74%
    19:00 +9°C° 0.6 mm 1 mps 664 mmHg 78%
    20:00 +8°C° 0.1 mm 1 mps 664 mmHg 79%
    21:00 +6°C° 0.1 mm 2 mps 664 mmHg 79%
    22:00 +6°C° 0.1 mm 2 mps 665 mmHg 80%
    23:00 +5°C° 0 mm 2 mps 665 mmHg 79%

    Tomorrow, 27 March, Wednesday

    Time Temperature Precipitation Wind Pressure Humidity
    00:00 +5°C° 0 mm 2 mps 665 mmHg 79%
    01:00 +4°C° 0 mm 2 mps 665 mmHg 79%
    02:00 +4°C° 0 mm 2 mps 665 mmHg 79%
    03:00 +4°C° 0 mm 2 mps 665 mmHg 79%
    04:00 +3°C° 0 mm 2 mps 665 mmHg 78%
    05:00 +3°C° 0.1 mm 2 mps 665 mmHg 76%
    06:00 +4°C° 0.1 mm 2 mps 666 mmHg 73%
    07:00 +4°C° 0.1 mm 2 mps 666 mmHg 70%
    08:00 +6°C° 0 mm 2 mps 667 mmHg 65%
    09:00 +7°C° 0 mm 2 mps 667 mmHg 59%
    10:00 +9°C° 0 mm 2 mps 668 mmHg 53%
    11:00 +10°C° 0 mm 2 mps 668 mmHg 50%
    12:00 +12°C° 0 mm 2 mps 668 mmHg 48%
    13:00 +12°C° 0 mm 2 mps 668 mmHg 46%
    14:00 +10°C° 0.4 mm 2 mps 668 mmHg 51%
    15:00 +10°C° 0.4 mm 2 mps 667 mmHg 56%
    16:00 +9°C° 0.4 mm 2 mps 667 mmHg 62%
    17:00 +9°C° 0.7 mm 1 mps 667 mmHg 68%
    18:00 +8°C° 0.7 mm 1 mps 667 mmHg 74%
    19:00 +7°C° 0.7 mm 1 mps 667 mmHg 80%
    20:00 +7°C° 0.2 mm 1 mps 667 mmHg 79%
    21:00 +5°C° 0.2 mm 2 mps 667 mmHg 78%
    22:00 +5°C° 0.2 mm 2 mps 667 mmHg 77%
    23:00 +4°C° 0 mm 2 mps 667 mmHg 75%

    Day after tomorrow, 28 March, Thursday

    Time Temperature Precipitation Wind Pressure Humidity
    00:00 +4°C° 0 mm 2 mps 667 mmHg 73%
    01:00 +4°C° 0 mm 2 mps 667 mmHg 71%
    02:00 +2°C° 0 mm 3 mps 667 mmHg 71%
    03:00 +2°C° 0 mm 3 mps 667 mmHg 71%
    04:00 +1°C° 0 mm 3 mps 667 mmHg 71%
    05:00 +1°C° 0.1 mm 3 mps 667 mmHg 71%
    06:00 +1°C° 0.1 mm 3 mps 667 mmHg 72%
    07:00 +1°C° 0.1 mm 3 mps 667 mmHg 72%
    08:00 +3°C° 0 mm 3 mps 668 mmHg 69%
    09:00 +4°C° 0 mm 4 mps 668 mmHg 65%
    10:00 +5°C° 0 mm 4 mps 669 mmHg 61%
    11:00 +6°C° 0 mm 4 mps 669 mmHg 59%
    12:00 +6°C° 0 mm 4 mps 669 mmHg 58%
    13:00 +7°C° 0 mm 4 mps 669 mmHg 56%
    14:00 +6°C° 0 mm 4 mps 669 mmHg 56%
    15:00 +6°C° 0 mm 4 mps 668 mmHg 57%
    16:00 +6°C° 0 mm 4 mps 668 mmHg 58%
    17:00 +5°C° 0 mm 3 mps 668 mmHg 64%
    18:00 +3°C° 0 mm 3 mps 668 mmHg 70%
    19:00 +3°C° 0 mm 2 mps 668 mmHg 75%
    20:00 +3°C° 0 mm 2 mps 668 mmHg 77%
    21:00 +2°C° 0 mm 2 mps 668 mmHg 79%
    22:00 +2°C° 0 mm 2 mps 669 mmHg 81%
    23:00 +1°C° 0 mm 2 mps 669 mmHg 81%

    29 March, Friday

    Time Temperature Precipitation Wind Pressure Humidity
    00:00 +1°C° 0 mm 2 mps 669 mmHg 81%
    01:00 +1°C° 0 mm 2 mps 669 mmHg 81%
    02:00 +1°C° 0 mm 2 mps 669 mmHg 80%
    03:00 +1°C° 0 mm 2 mps 669 mmHg 79%
    04:00 +1°C° 0 mm 2 mps 669 mmHg 78%
    05:00 +1°C° 0 mm 2 mps 669 mmHg 75%
    06:00 +2°C° 0 mm 2 mps 670 mmHg 72%
    07:00 +2°C° 0 mm 2 mps 670 mmHg 69%
    08:00 +3°C° 0 mm 3 mps 670 mmHg 60%
    09:00 +4°C° 0 mm 3 mps 671 mmHg 51%
    10:00 +5°C° 0 mm 4 mps 671 mmHg 42%
    11:00 +6°C° 0 mm 4 mps 671 mmHg 41%
    12:00 +6°C° 0 mm 4 mps 670 mmHg 39%
    13:00 +7°C° 0 mm 5 mps 670 mmHg 38%
    14:00 +7°C° 0 mm 5 mps 670 mmHg 39%
    15:00 +7°C° 0 mm 5 mps 670 mmHg 40%
    16:00 +6°C° 0 mm 5 mps 669 mmHg 42%
    17:00 +5°C° 0 mm 4 mps 669 mmHg 46%
    18:00 +3°C° 0 mm 3 mps 669 mmHg 51%
    19:00 +2°C° 0 mm 3 mps 669 mmHg 55%
    20:00 +1°C° 0 mm 3 mps 669 mmHg 57%
    21:00 +2°C° 0 mm 2 mps 669 mmHg 58%
    22:00 +1°C° 0 mm 2 mps 669 mmHg 59%
    23:00 +1°C° 0 mm 2 mps 669 mmHg 60%

    30 March, Saturday

    Time Temperature Precipitation Wind Pressure Humidity
    00:00 -1°C° 0 mm 2 mps 669 mmHg 60%
    01:00 -1°C° 0 mm 2 mps 669 mmHg 60%
    02:00 -2°C° 0 mm 2 mps 669 mmHg 60%
    03:00 -2°C° 0 mm 2 mps 668 mmHg 61%
    04:00 -2°C° 0 mm 2 mps 668 mmHg 61%
    05:00 -1°C° 0 mm 2 mps 668 mmHg 57%
    06:00 +1°C° 0 mm 2 mps 669 mmHg 53%
    07:00 +2°C° 0 mm 2 mps 669 mmHg 49%
    08:00 +3°C° 0 mm 2 mps 669 mmHg 45%
    09:00 +4°C° 0 mm 3 mps 669 mmHg 40%
    10:00 +5°C° 0 mm 3 mps 670 mmHg 35%
    11:00 +7°C° 0 mm 3 mps 669 mmHg 34%
    12:00 +8°C° 0 mm 3 mps 669 mmHg 34%
    13:00 +8°C° 0 mm 4 mps 669 mmHg 33%
    14:00 +8°C° 0 mm 4 mps 668 mmHg 35%
    15:00 +8°C° 0 mm 4 mps 668 mmHg 36%
    16:00 +8°C° 0 mm 4 mps 667 mmHg 38%
    17:00 +6°C° 0 mm 4 mps 667 mmHg 44%
    18:00 +4°C° 0 mm 3 mps 667 mmHg 51%
    19:00 +4°C° 0 mm 2 mps 667 mmHg 57%
    20:00 +3°C° 0 mm 2 mps 667 mmHg 59%
    21:00 +3°C° 0 mm 2 mps 667 mmHg 60%
    22:00 +2°C° 0 mm 2 mps 667 mmHg 61%
    23:00 +2°C° 0 mm 2 mps 666 mmHg 63%

    31 March, Sunday

    Time Temperature Precipitation Wind Pressure Humidity
    00:00 +1°C° 0 mm 2 mps 666 mmHg 64%
    01:00 +1°C° 0 mm 2 mps 666 mmHg 65%
    02:00 +1°C° 0 mm 2 mps 666 mmHg 66%
    03:00 +1°C° 0 mm 2 mps 665 mmHg 67%
    04:00 -1°C° 0 mm 2 mps 665 mmHg 69%
    05:00 +1°C° 0 mm 2 mps 665 mmHg 66%
    06:00 +2°C° 0 mm 2 mps 665 mmHg 63%
    07:00 +3°C° 0 mm 2 mps 666 mmHg 60%
    08:00 +5°C° 0 mm 2 mps 666 mmHg 53%
    09:00 +7°C° 0 mm 2 mps 666 mmHg 46%
    10:00 +9°C° 0 mm 2 mps 667 mmHg 39%
    11:00 +10°C° 0 mm 2 mps 666 mmHg 38%
    12:00 +10°C° 0 mm 2 mps 666 mmHg 37%
    13:00 +12°C° 0 mm 2 mps 666 mmHg 36%
    14:00 +11°C° 0 mm 3 mps 665 mmHg 39%
    15:00 +10°C° 0 mm 3 mps 665 mmHg 42%
    16:00 +10°C° 0 mm 3 mps 665 mmHg 45%
    17:00 +8°C° 0 mm 3 mps 664 mmHg 53%
    18:00 +7°C° 0 mm 2 mps 664 mmHg 61%
    19:00 +5°C° 0 mm 2 mps 664 mmHg 69%
    20:00 +6°C° 0 mm 1 mps 664 mmHg 70%
    21:00 +5°C° 0 mm 1 mps 664 mmHg 72%
    22:00 +5°C° 0 mm 1 mps 664 mmHg 73%
    23:00 +4°C° 0 mm 1 mps 664 mmHg 74%
    Show more